Istanbul, Turkey

12:57 PM +03 on June 28, 2017 (GMT +0300)
Ataturk

Weather History for LTBA - December, 2011

Change the Weather History Date:

Tuesday, December 27, 2011

  Actual Average Record
Temperature  
Mean Temperature 44 °F -  
Max Temperature 48 °F 46 °F 60 °F (2000)
Min Temperature 39 °F 37 °F 30 °F (2006)
Degree Days  
Heating Degree Days 22    
Moisture  
Dew Point 32 °F    
Average Humidity 61    
Maximum Humidity 76    
Minimum Humidity 41    
Precipitation  
Precipitation 0.00 in - - ()
Sea Level Pressure  
Sea Level Pressure 30.59 in    
Wind  
Wind Speed 8 mph ()    
Max Wind Speed 13 mph    
Max Gust Speed 22 mph    
Visibility 5.6 miles    
Events      
Averages and records for this station are not official NWS values.
T = Trace of Precipitation, MM = Missing Value Source: Averaged Metar Reports

Daily Weather History Graph

Daily Weather History Graph

Search for Another Location

Airport or City:

Trip Planner

Search our weather history database for the weather conditions in past years. The results will help you decide how hot, cold, wet, or windy it might be!

Date:

Astronomy

Dec. 27, 2011 Rise Set
Actual Time 7:28 AM EET 4:42 PM EET
Civil Twilight 6:57 AM EET 5:13 PM EET
Nautical Twilight 6:22 AM EET 5:48 PM EET
Astronomical Twilight 5:49 AM EET 6:22 PM EET
Moon 9:11 AM EET (12/27) 7:56 PM EET (12/27)
Length of Visible Light 10h 16m
Length of Day
9h 14m
Waxing Crescent, 9% of the Moon is Illuminated
Dec 27
Waxing Crescent
Jan 1
First Quarter
Jan 9
Full
Jan 16
Last Quarter
Jan 23
New

Hourly Weather History & Observations

Time (EET) Temp. Windchill Dew Point Humidity Pressure Visibility Wind Dir Wind Speed Gust Speed Precip Events Conditions
12:20 AM 44.6 °F 40.2 °F 33.8 °F 66% 30.60 in 4.3 mi Variable 8.1 mph - N/A   Unknown
12:50 AM 42.8 °F 37.0 °F 32.0 °F 66% 30.60 in 3.7 mi NNE 10.4 mph - N/A   Unknown
1:20 AM 41.0 °F 35.2 °F 32.0 °F 70% 30.60 in 3.7 mi NNE 9.2 mph - N/A   Unknown
1:50 AM 41.0 °F 35.2 °F 32.0 °F 70% 30.60 in 3.7 mi NNE 9.2 mph - N/A   Unknown
2:00 AM 41 °F - 32 °F 59% 30.62 in 4 mi NNE 9.2 mph - -   Mist
2:20 AM 41.0 °F 35.2 °F 32.0 °F 70% 30.60 in 2.5 mi NNE 9.2 mph - N/A   Partly Cloudy
2:50 AM 41.0 °F 35.2 °F 32.0 °F 70% 30.60 in 2.5 mi NNE 9.2 mph - N/A   Partly Cloudy
3:20 AM 41.0 °F 35.8 °F 32.0 °F 70% 30.60 in 6.2 mi NNE 8.1 mph - N/A   Partly Cloudy
3:50 AM 41.0 °F 36.4 °F 32.0 °F 70% 30.60 in 3.7 mi NNE 6.9 mph - N/A   Unknown
4:50 AM 41.0 °F 37.1 °F 32.0 °F 70% 30.60 in 3.7 mi NNE 5.8 mph - N/A   Unknown
5:20 AM 41.0 °F 37.1 °F 33.8 °F 76% 30.60 in 3.7 mi NNE 5.8 mph - N/A   Unknown
5:50 AM 41.0 °F 36.4 °F 33.8 °F 76% 30.60 in - NNE 6.9 mph - N/A   Clear
6:20 AM 41.0 °F 36.4 °F 33.8 °F 76% 30.60 in 3.7 mi NNE 6.9 mph - N/A   Unknown
6:50 AM 41.0 °F 35.8 °F 33.8 °F 76% 30.60 in 3.7 mi NNE 8.1 mph - N/A   Unknown
7:20 AM 42.8 °F 38.6 °F 33.8 °F 70% 30.60 in - Variable 6.9 mph - N/A   Clear
7:50 AM 41.0 °F 36.4 °F 32.0 °F 70% 30.60 in - NNE 6.9 mph - N/A   Clear
8:00 AM 41 °F - 33 °F 64% 30.63 in 12 mi NNE 6.9 mph - -  
8:20 AM 42.8 °F 38.6 °F 33.8 °F 70% 30.63 in - Variable 6.9 mph - N/A   Clear
8:50 AM 44.6 °F 40.7 °F 33.8 °F 66% 30.63 in 6.2 mi ENE 6.9 mph - N/A   Partly Cloudy
9:20 AM 46.4 °F 41.9 °F 33.8 °F 62% 30.63 in 6.2 mi ENE 9.2 mph - N/A   Partly Cloudy
9:50 AM 46.4 °F 41.5 °F 32.0 °F 57% 30.63 in 6.2 mi NE 10.4 mph - N/A   Partly Cloudy
10:20 AM 46.4 °F 41.9 °F 32.0 °F 57% 30.63 in 6.2 mi East 9.2 mph - N/A   Partly Cloudy
10:50 AM 46.4 °F 41.5 °F 30.2 °F 53% 30.63 in 6.2 mi ENE 10.4 mph - N/A   Partly Cloudy
11:20 AM 46.4 °F 41.1 °F 32.0 °F 57% 30.60 in 6.2 mi ENE 11.5 mph - N/A   Partly Cloudy
11:50 AM 46.4 °F 41.9 °F 32.0 °F 57% 30.60 in 6.2 mi East 9.2 mph - N/A   Scattered Clouds
12:20 PM 48.2 °F - 32.0 °F 54% 30.60 in 6.2 mi ENE 12.7 mph - N/A   Scattered Clouds
12:50 PM 46.4 °F 41.1 °F 30.2 °F 53% 30.60 in 6.2 mi NE 11.5 mph - N/A   Mostly Cloudy
1:20 PM 46.4 °F 41.1 °F 30.2 °F 53% 30.57 in 6.2 mi NE 11.5 mph - N/A   Mostly Cloudy
1:50 PM 46.4 °F 41.5 °F 30.2 °F 53% 30.57 in 6.2 mi ENE 10.4 mph - N/A   Mostly Cloudy
2:00 PM 46 °F - 30 °F 41% 30.59 in 6 mi ENE 10.4 mph - -   Mostly Cloudy
2:20 PM 46.4 °F 41.5 °F 30.2 °F 53% 30.57 in 6.2 mi East 10.4 mph - N/A   Mostly Cloudy
2:50 PM 48.2 °F - 32.0 °F 54% 30.57 in 6.2 mi ENE 9.2 mph - N/A   Mostly Cloudy
3:20 PM 48.2 °F - 32.0 °F 54% 30.57 in 6.2 mi East 8.1 mph 21.9 mph N/A   Mostly Cloudy
3:50 PM 48.2 °F - 30.2 °F 50% 30.57 in 6.2 mi East 10.4 mph - N/A   Scattered Clouds
4:20 PM 46.4 °F 41.9 °F 30.2 °F 53% 30.57 in 6.2 mi East 9.2 mph - N/A   Scattered Clouds
4:50 PM 44.6 °F 40.2 °F 28.4 °F 53% 30.57 in 6.2 mi NE 8.1 mph - N/A   Scattered Clouds
5:20 PM 46.4 °F 42.4 °F 30.2 °F 53% 30.57 in 6.2 mi ENE 8.1 mph - N/A   Scattered Clouds
5:50 PM 44.6 °F 39.7 °F 30.2 °F 57% 30.57 in 6.2 mi NE 9.2 mph - N/A   Scattered Clouds
6:20 PM 44.6 °F 39.7 °F 30.2 °F 57% 30.57 in 6.2 mi NE 9.2 mph - N/A   Scattered Clouds
6:50 PM 44.6 °F 40.2 °F 30.2 °F 57% 30.57 in 6.2 mi NE 8.1 mph - N/A   Scattered Clouds
7:20 PM 44.6 °F 40.2 °F 32.0 °F 61% 30.57 in 6.2 mi NE 8.1 mph - N/A   Scattered Clouds
7:50 PM 44.6 °F 41.4 °F 30.2 °F 57% 30.57 in 6.2 mi ENE 5.8 mph - N/A   Partly Cloudy
8:00 PM 44 °F - 31 °F 48% 30.57 in 6 mi ENE 5.8 mph - -   Scattered Clouds
8:20 PM 44.6 °F 38.8 °F 30.2 °F 57% 30.54 in 6.2 mi ENE 11.5 mph - N/A   Partly Cloudy
8:50 PM 42.8 °F 38.6 °F 30.2 °F 61% 30.54 in 6.2 mi NE 6.9 mph - N/A   Partly Cloudy
9:20 PM 42.8 °F 40.1 °F 30.2 °F 61% 30.54 in 6.2 mi East 4.6 mph - N/A   Partly Cloudy
9:50 PM 44.6 °F 41.4 °F 30.2 °F 57% 30.54 in 6.2 mi ENE 5.8 mph - N/A   Partly Cloudy
10:20 PM 42.8 °F 39.3 °F 30.2 °F 61% 30.54 in - ENE 5.8 mph - N/A   Clear
10:50 PM 42.8 °F 39.3 °F 30.2 °F 61% 30.54 in - NE 5.8 mph - N/A   Clear
11:20 PM 39.2 °F 35.9 °F 30.2 °F 70% 30.54 in - NNE 4.6 mph - N/A   Clear
11:50 PM 41.0 °F 38.0 °F 32.0 °F 70% 30.54 in - Variable 4.6 mph - N/A   Clear